Regional Weather Roundup
Issued by NWS

Home | Current Version | Previous Version | Graphics & Text | Print | Product List | Glossary On
Versions: 1 2 3 4 5 6 7 8 9 10 11 12 13 14 15 16 17 18 19 20 21 22 23 24 25 26 27 28 29 30 31 32 33 34 35 36 37 38 39 40 41 42 43 44 45 46 47 48 49 50
000
ASUS43 KBIS 051610
RWRND

NORTH DAKOTA REGIONAL WEATHER ROUNDUP
NATIONAL WEATHER SERVICE BISMARCK ND
1000 AM CST THU MAR 05 2015

NOTE: "FAIR" INDICATES FEW OR NO CLOUDS BELOW 12,000 FEET WITH NO
SIGNIFICANT WEATHER AND/OR OBSTRUCTIONS TO VISIBILITY.


NDZ001>003-009>011-017-051700-
NORTHWEST NORTH DAKOTA

CITY           SKY/WX    TMP DP  RH WIND       PRES   REMARKS
WILLISTON        N/A    N/A N/A N/A MISG      30.07S
MINOT          SUNNY     11  -2  56 S12       30.07F WCI  -3
MINOT AFB      SUNNY      8  -1  66 SW14      30.06F WCI  -8
$$

NDZ018>021-031>035-040>046-051700-
SOUTHWEST NORTH DAKOTA

CITY           SKY/WX    TMP DP  RH WIND       PRES   REMARKS
BISMARCK       SUNNY     10   1  67 SE6       30.18F WCI   0
DICKINSON      SUNNY     25   6  44 SW13      30.03R WCI  14
GARRISON         N/A      5  -2  72 S8        30.10F WCI  -8
HETTINGER ARPT MOSUNNY   22   4  46 SW10      30.08F WCI  11
$$

NDZ004>008-012>016-024-026-027-054-051700-
NORTHEAST NORTH DAKOTA

CITY           SKY/WX    TMP DP  RH WIND       PRES   REMARKS
GRAND FORKS    SUNNY      4  -5  66 S14       30.30F WCI -14
GRND FRKS AFB  SUNNY      7  -7  51 S14       30.28F WCI  -9
DEVILS LAKE    SUNNY      3  -8  60 SW9       30.18F WCI -11
$$

NDZ022-023-025-028>030-036>039-047>053-051700-
SOUTHEAST NORTH DAKOTA

CITY           SKY/WX    TMP DP  RH WIND       PRES   REMARKS
FARGO          SUNNY      7  -6  55 S15       30.37F WCI -10
JAMESTOWN      SUNNY      8  -2  63 S10       30.22F WCI  -6
$$




USA.gov is the U.S. government's official web portal to all federal, state and local government web resources and services.